FW5647 Weather Reports


Display with metric or nautical units.
time (UTC)temp
F
wind
direction
speed
MPH
gust
MPH
rain 1hr
in
rain 24hr
in
rain mn
in
humidity
%
barometer
mb
20260902130041 78 248 0.0 5.0 0.00 0.00 0.00 88 1015.5
20260902124541 76 0 1.0 6.0 0.00 0.00 0.00 90 1015.6
20260902123101 75 218 0.0 3.0 0.00 0.00 0.00 93 1015.6
20260902121553 74 0 0.0 1.0 0.00 0.00 0.00 95 1015.3
20260902120044 73 0 0.0 1.0 0.00 0.00 0.00 95 1015.5
20260902114541 73 0 0.0 1.0 0.00 0.00 0.00 94 1015.4
20260902113040 73 0 0.0 2.0 0.00 0.00 0.00 94 1015.5
20260902111546 74 200 0.0 1.0 0.00 0.00 0.00 94 1015.3
20260902110042 74 0 0.0 2.0 0.00 0.00 0.00 94 1015.9
20260902104542 74 255 1.0 5.0 0.00 0.00 0.00 95 1015.6
20260902103043 73 0 0.0 1.0 0.00 0.00 0.00 95 1015.6
20260902101538 73 0 0.0 1.0 0.00 0.00 0.00 95 1015.3
20260902100038 74 0 0.0 2.0 0.00 0.00 0.00 95 1015.1
20260902094541 73 0 0.0 1.0 0.00 0.00 0.00 95 1015.0
20260902093040 73 0 0.0 0.0 0.00 0.00 0.00 94 1015.2
20260902091539 74 0 0.0 0.0 0.00 0.00 0.00 94 1015.1
20260902090040 74 0 0.0 1.0 0.00 0.00 0.00 94 1015.0
20260902084541 74 0 0.0 2.0 0.00 0.00 0.00 94 1014.9
20260902083038 75 257 1.0 3.0 0.00 0.00 0.00 94 1014.9
20260902081542 74 229 0.0 1.0 0.00 0.00 0.00 95 1014.9
20260902080040 74 0 0.0 2.0 0.00 0.00 0.00 95 1015.0
20260902074542 74 240 0.0 1.0 0.00 0.00 0.00 94 1014.8
20260902073040 74 0 0.0 2.0 0.00 0.00 0.00 95 1014.9
20260902071541 74 0 0.0 1.0 0.00 0.00 0.00 94 1014.7
20260902070042 74 0 0.0 1.0 0.00 0.00 0.00 95 1014.7
20260902064537 74 221 0.0 4.0 0.00 0.00 0.00 95 1014.6
20260902063052 74 0 0.0 2.0 0.00 0.00 0.00 95 1014.6
20260902061539 73 0 0.0 0.0 0.00 0.00 0.00 95 1014.8
20260902060041 72 0 0.0 0.0 0.00 0.00 0.00 95 1015.0
20260902054545 72 0 0.0 0.0 0.00 0.00 0.00 94 1015.2
20260902053043 72 0 0.0 0.0 0.00 0.00 0.00 94 1015.3
20260902051545 72 0 0.0 0.0 0.00 0.00 0.00 94 1015.2
20260902050057 72 0 0.0 0.0 0.00 0.00 0.00 94 1015.3
20260902044539 72 0 0.0 0.0 0.00 0.00 0.00 93 1015.5
20260902043044 72 0 0.0 0.0 0.00 0.00 0.00 93 1015.4
20260902041540 72 0 0.0 0.0 0.00 0.00 0.00 93 1015.4
20260902040042 72 0 0.0 1.0 0.00 0.00 0.00 93 1015.3
20260902034541 72 0 0.0 0.0 0.00 0.00 0.00 93 1015.3
20260902033037 73 0 0.0 0.0 0.00 0.00 0.00 93 1015.4
20260902031541 73 230 0.0 0.0 0.00 0.00 0.00 92 1015.0
20260902030039 73 0 0.0 0.0 0.00 0.00 0.00 91 1015.0
20260902024555 74 0 0.0 0.0 0.00 0.00 0.00 91 1015.0
20260902023042 74 0 0.0 0.0 0.00 0.00 0.00 90 1014.8
20260902021539 75 0 0.0 0.0 0.00 0.00 0.00 90 1014.7
20260902020053 75 0 0.0 0.0 0.00 0.00 0.00 90 1014.9
20260902014546 75 0 0.0 0.0 0.00 0.00 0.00 89 1015.1
20260902013043 76 0 0.0 0.0 0.00 0.00 0.00 88 1015.2
20260902011541 76 0 0.0 0.0 0.00 0.00 0.00 87 1015.3
20260902010046 77 0 0.0 3.0 0.00 0.00 0.00 86 1015.2
20260902004548 77 0 0.0 1.0 0.00 0.00 0.00 85 1015.1
20260902003044 78 0 0.0 0.0 0.00 0.00 0.00 83 1014.9
20260902001545 80 0 0.0 3.0 0.00 0.00 0.00 80 1014.6
20260902000044 80 252 0.0 5.0 0.00 0.00 0.00 79 1014.9
20260901234553 81 259 2.0 9.0 0.00 0.00 0.00 77 1015.0
20260901233043 82 291 3.0 6.0 0.00 0.00 0.00 76 1015.1
20260901231540 83 244 1.0 9.0 0.00 0.00 0.00 74 1015.1
20260901224541 85 276 4.0 14.0 0.00 0.02 0.00 71 1015.0
20260901223101 86 240 4.0 12.0 0.00 0.02 0.00 71 1014.7
20260901221542 87 295 4.0 10.0 0.00 0.02 0.00 72 1014.6
20260901220106 87 191 5.0 11.0 0.00 0.02 0.00 71 1014.5
20260901214542 89 281 2.0 8.0 0.00 0.07 0.00 70 1014.4
20260901213050 88 236 4.0 10.0 0.00 0.07 0.00 69 1014.2
20260901211540 89 194 3.0 8.0 0.00 0.07 0.00 71 1014.2
20260901210040 88 206 3.0 10.0 0.00 0.07 0.00 71 1014.4
20260901204546 88 257 5.0 13.0 0.00 0.16 0.00 71 1014.6
20260901203044 88 222 4.0 10.0 0.00 0.16 0.00 72 1014.7
20260901201550 88 253 6.0 13.0 0.00 0.16 0.00 71 1014.6
20260901200047 88 237 3.0 10.0 0.00 0.16 0.00 72 1014.7
20260901194547 89 251 6.0 11.0 0.00 0.16 0.00 70 1014.9
20260901193042 89 255 5.0 13.0 0.00 0.16 0.00 70 1014.9
20260901191602 89 310 2.0 12.0 0.00 0.16 0.00 70 1014.8
20260901190046 88 248 4.0 9.0 0.00 0.16 0.00 72 1015.0
20260901184607 89 255 5.0 11.0 0.00 0.16 0.00 69 1015.1
20260901183049 89 141 3.0 8.0 0.00 0.16 0.00 71 1015.0
20260901181553 89 295 3.0 8.0 0.00 0.16 0.00 70 1014.9
20260901180041 88 248 3.0 9.0 0.00 0.16 0.00 71 1014.8
20260901174555 89 248 1.0 7.0 0.00 0.16 0.00 70 1014.9
20260901173045 88 256 4.0 8.0 0.00 0.16 0.00 70 1015.0
20260901171550 87 264 3.0 6.0 0.00 0.16 0.00 70 1015.1
20260901170048 87 276 4.0 7.0 0.00 0.16 0.00 72 1015.3
20260901164542 86 146 2.0 7.0 0.00 0.16 0.00 73 1015.4
20260901163043 86 226 2.0 5.0 0.00 0.16 0.00 72 1015.4
20260901161600 85 299 3.0 6.0 0.00 0.16 0.00 75 1015.6
20260901160059 84 288 1.0 6.0 0.00 0.16 0.00 75 1015.8
20260901154547 84 268 2.0 4.0 0.00 0.16 0.00 76 1015.7
20260901153048 84 234 2.0 5.0 0.00 0.16 0.00 76 1015.6
20260901151540 83 146 2.0 4.0 0.00 0.16 0.00 78 1015.7
20260901150040 81 261 1.0 3.0 0.00 0.16 0.00 81 1015.9
20260901144541 81 152 0.0 2.0 0.00 0.16 0.00 81 1015.9
20260901143056 79 303 0.0 2.0 0.00 0.16 0.00 82 1015.9
20260901141629 79 0 0.0 4.0 0.00 0.16 0.00 82 1016.0
20260901140043 78 0 0.0 4.0 0.00 0.16 0.00 84 1015.8
20260901134539 77 247 0.0 4.0 0.00 0.16 0.00 85 1015.8
20260901133043 77 295 2.0 5.0 0.00 0.16 0.00 85 1015.7
20260901131541 75 262 1.0 3.0 0.00 0.16 0.00 87 1015.3